Find Starlink 35968

NORAD ID: 66636 Int'l Des: 2025-271 Owner: SPXS Country: US Constellation: starlink operational
LEOCIRCULAR

Aktuelle Ansicht

3D-Globus wird geladen...

Über Starlink 35968

Beschreibung wird geladen...

Nächste Überflüge

Passes for default location (London). Set your location on the main map for personalized predictions.

Höhenverlauf

Loading altitude history...

Zweizeiliger Elementsatz

1 66636U 25271V 26149.35099619 .00034238 00000-0 11624-2 0 9994
2 66636 53.1570 125.4567 0001433 76.0785 284.0375 15.30210810 29915
Epoch: 29. Mai 2026 • Age: 28 hours

Aktueller Status

Höhe 483.2 km
Geschwindigkeit 7.62 km/s
Subsatellitenpunkt -26.72°S, 22.59°E
Startdatum 23. Nov. 2025
Alter 0.5 years
Typ internet

Technische Details

Klassifizierung Payload
Masse 575.00 kg
Trockenmasse 530.00 kg
Gesamtmasse 575.00 kg
Länge 0.30 m
Durchmesser 4.10 m
Spannweite 29.00 m
Form Box + pan
Hersteller SPXS
Bus-Typ Starlink V2MO
Phasenstatus In Orbit
Besitzer/Staat SPXS/US

Most Searched